Location: NJAA Observatory
(40.6819°N, 74.8979°W)
Time: 20:58:46
(UTC-04:00)

Landsat 5 - Visible Passes

Search period start: 23 July 2016 00:00
Search period end: 02 August 2016 00:00
Orbit: 530 x 658 km, 98.0° (Epoch: 23 July)

Date Brightness Start Highest point End Pass type
(mag) Time Alt. Az. Time Alt. Az. Time Alt. Az.
23 Jul 5.3 01:25:57 26° NW 01:25:57 26° NW 01:28:16 10° NNW visible
23 Jul 5.2 23:58:48 25° NE 23:58:48 25° NE 00:01:46 10° NNE visible
24 Jul 5.6 01:35:26 21° WNW 01:35:26 21° WNW 01:37:21 10° NW visible
25 Jul 5.1 00:08:17 30° NE 00:08:17 30° NE 00:11:15 10° N visible
25 Jul 5.8 01:44:55 17° WNW 01:44:55 17° WNW 01:46:22 10° NW visible
26 Jul 4.9 00:17:46 33° NE 00:17:46 33° NE 00:20:40 10° N visible
26 Jul 6.1 01:54:24 13° WNW 01:54:24 13° WNW 01:55:16 10° NW visible
27 Jul 4.9 00:27:15 36° NNE 00:27:15 36° NNE 00:30:03 10° N visible
27 Jul 6.2 02:03:53 10° WNW 02:03:53 10° WNW 02:03:59 10° WNW visible
28 Jul 4.9 00:36:44 37° N 00:36:44 37° N 00:39:24 10° N visible
29 Jul 5.0 00:46:13 35° N 00:46:13 35° N 00:48:42 10° N visible
30 Jul 5.2 00:55:41 32° NNW 00:55:41 32° NNW 00:57:59 10° NNW visible
30 Jul 6.0 23:28:33 12° NE 23:28:33 12° NE 23:29:42 10° NE visible
31 Jul 5.4 01:05:10 27° NNW 01:05:10 27° NNW 01:07:12 10° NNW visible
31 Jul 5.9 23:38:01 14° NE 23:38:01 14° NE 23:39:35 10° NNE visible
01 Aug 5.6 01:14:39 23° NW 01:14:39 23° NW 01:16:24 10° NNW visible
01 Aug 5.8 23:47:30 17° NE 23:47:30 17° NE 23:49:15 10° NNE visible
